Regional Weather Roundup
Issued by NWS

Home | Current Version | Previous Version | Text Only | Print | Product List | Glossary On
Versions: 1 2 3 4 5 6 7 8 9 10 11 12 13 14 15 16 17 18 19 20 21 22 23 24 25 26 27 28 29 30 31 32 33 34 35 36 37 38 39 40 41 42 43 44 45 46 47 48 49 50
000
ASUS44 KOUN 281600
RWROK

WEATHER ROUNDUP FOR OKLAHOMA
NATIONAL WEATHER SERVICE NORMAN OK
1000 AM CST SAT FEB 28 2015

NOTE: "FAIR" INDICATES FEW OR NO CLOUDS BELOW 12,000 FEET WITH NO
      SIGNIFICANT WEATHER AND/OR OBSTRUCTIONS TO VISIBILITY.

OKZ001>007-009>012-014-015-017-281700-
NORTHWEST OKLAHOMA AND THE PANHANDLE

CITY           SKY/WX    TMP DP  RH WIND       PRES   REMARKS
GAGE           LGT SNOW  18  14  84 S12       30.29S VSB 3/4 WCI   5
GUYMON         MOSUNNY   17  11  77 S14       30.15S WCI   3
$$

OKZ016-021>023-033>039-044-045-281700-
SOUTHWEST OKLAHOMA

CITY           SKY/WX    TMP DP  RH WIND       PRES   REMARKS
LAWTON/REGL    LGT SNOW  22  19  89 E6        30.39F FOG     WCI  14
LAWTON/FT SILL LGT SNOW  21  19  93 E3        30.37F FOG
FREDERICK      CLOUDY    21  18  88 E7        30.35F FOG     WCI  12
CLINTON        CLOUDY    20  15  81 SE6       30.35S HAZE    WCI  12
HOBART         CLOUDY    20  17  88 E7        30.37S FOG     WCI  11
$$

OKZ018>020-024>031-281700-
CENTRAL OKLAHOMA

CITY           SKY/WX    TMP DP  RH WIND       PRES   REMARKS
OKLAHOMA CITY  LGT SNOW  22  16  78 SE7       30.39S VSB 3/4 WCI  13
OKC/WILEY POST SNOW      21  17  84 E3        30.41S VSB 1/2
OKC/TINKER AFB LGT SNOW  21  18  86 SE6       30.39R FOG     WCI  14
STILLWATER     LGT SNOW  22  18  85 E6        30.44R VSB 1   WCI  14
GUTHRIE        HVY SNOW  21  18  88 SE6       30.42S VSB 1/4 WCI  13
$$

OKZ008-013-054>072-281700-
NORTHEAST OKLAHOMA

CITY           SKY/WX    TMP DP  RH WIND       PRES   REMARKS
TULSA          LGT SNOW  24  21  88 E7        30.47F VSB 1   WCI  16
TULSA/JONES    LGT SNOW  24  20  84 SE6       30.47F FOG     WCI  17
PONCA CITY     SNOW      21  17  84 SE6       30.44S VSB 1/2 WCI  13
BARTLESVILLE   LGT SNOW  22  19  89 E6        30.49F VSB 3/4 WCI  14
MUSKOGEE       LGT SNOW  24  20  84 E13       30.49F VSB 3/4 WCI  12
$$

OKZ032-040>043-046>053-073>077-281700-
SOUTH CENTRAL/SOUTHEAST OKLAHOMA

CITY           SKY/WX    TMP DP  RH WIND       PRES   REMARKS
MCALESTER      MIX PCPN  24  20  84 VRB5      30.45F WCI  18
$$




USA.gov is the U.S. government's official web portal to all federal, state and local government web resources and services.